H1 CPF 2 NER 2024 7 5 9 187 01 glonass133 H2 1403201 9133 40001 2024 7 5 0 0 0 2024 7 8 23 45 0 900 1 1 0 0 0 1 H9 10 0 60496 0.00000 0 -5522726.430 -19618632.448 -15322112.020 10 0 60496 900.00000 0 -4394638.998 -17920067.305 -17601765.673 10 0 60496 1800.00000 0 -2969805.218 -16117551.928 -19539232.302 10 0 60496 2700.00000 0 -1260497.825 -14276718.177 -21096966.118 10 0 60496 3600.00000 0 708214.817 -12461304.004 -22244825.119 10 0 60496 4500.00000 0 2899273.870 -10730555.692 -22960646.342 10 0 60496 5400.00000 0 5264942.525 -9136840.143 -23230664.950 10 0 60496 6300.00000 0 7748571.327 -7723566.098 -23049770.087 10 0 60496 7200.00000 0 10286743.144 -6523499.878 -22421593.561 10 0 60496 8100.00000 0 12811708.994 -5557544.449 -21358430.496 10 0 60496 9000.00000 0 15254014.161 -4834031.099 -19880994.111 10 0 60496 9900.00000 0 17545206.171 -4348551.655 -18018009.728 10 0 60496 10800.00000 0 19620513.027 -4084336.673 -15805655.955 10 0 60496 11700.00000 0 21421381.273 -4013162.360 -13286863.735 10 0 60496 12600.00000 0 22897769.230 -4096747.113 -10510486.481 10 0 60496 13500.00000 0 24010100.787 -4288578.217 -7530356.970 10 0 60496 14400.00000 0 24730799.132 -4536091.382 -4404248.741 10 0 60496 15300.00000 0 25045337.021 -4783111.081 -1192761.650 10 0 60496 16200.00000 0 24952760.230 -4972448.749 2041847.227 10 0 60496 17100.00000 0 24465662.605 -5048549.231 5236865.129 10 0 60496 18000.00000 0 23609613.866 -4960073.776 8330334.523 10 0 60496 18900.00000 0 22422064.086 -4662310.422 11262250.220 10 0 60496 19800.00000 0 20950770.461 -4119309.718 13975719.723 10 0 60496 20700.00000 0 19251811.935 -3305655.116 16418064.483 10 0 60496 21600.00000 0 17387274.297 -2207792.508 18541840.923 10 0 60496 22500.00000 0 15422702.100 -824861.696 20305761.656 10 0 60496 23400.00000 0 13424423.422 831006.735 21675499.104 10 0 60496 24300.00000 0 11456858.797 2734943.431 22624356.041 10 0 60496 25200.00000 0 9579926.254 4850132.668 23133789.990 10 0 60496 26100.00000 0 7846650.550 7129114.015 23193781.045 10 0 60496 27000.00000 0 6301076.172 9515540.908 22803035.605 10 0 60496 27900.00000 0 4976571.165 11946324.519 21969021.426 10 0 60496 28800.00000 0 3894592.647 14354074.922 20707832.573 10 0 60496 29700.00000 0 3063965.629 16669738.785 19043885.996 10 0 60496 30600.00000 0 2480705.314 18825324.166 17009454.739 10 0 60496 31500.00000 0 2128390.202 20756598.782 14644046.022 10 0 60496 32400.00000 0 1979070.033 22405648.784 11993635.656 10 0 60496 33300.00000 0 1994669.846 23723190.490 9109773.275 10 0 60496 34200.00000 0 2128830.220 24670537.569 6048575.790 10 0 60496 35100.00000 0 2329104.970 25221140.487 2869628.958 10 0 60496 36000.00000 0 2539422.169 25361633.068 -365180.890 10 0 60496 36900.00000 0 2702702.920 25092341.853 -3592881.258 10 0 60496 37800.00000 0 2763525.504 24427236.894 -6750649.245 10 0 60496 38700.00000 0 2670720.562 23393326.425 -9777043.469 10 0 60496 39600.00000 0 2379786.069 22029521.549 -12613207.012 10 0 60496 40500.00000 0 1855018.659 20385019.657 -15204017.133 10 0 60496 41400.00000 0 1071270.283 18517275.512 -17499158.819 10 0 60496 42300.00000 0 15255.289 16489646.214 -19454101.070 10 0 60496 43200.00000 0 -1313647.608 14368809.675 -21030957.146 10 0 60496 44100.00000 0 -2903132.530 12222065.219 -22199212.635 10 0 60496 45000.00000 0 -4728254.002 10114629.398 -22936308.019 10 0 60496 45900.00000 0 -6752252.979 8107039.697 -23228065.471 10 0 60496 46800.00000 0 -8927886.988 6252773.715 -23068952.681 10 0 60496 47700.00000 0 -11199209.088 4596181.947 -22462179.629 10 0 60496 48600.00000 0 -13503721.867 3170818.871 -21419627.311 10 0 60496 49500.00000 0 -15774817.320 1998240.147 -19961610.411 10 0 60496 50400.00000 0 -17944401.653 1087314.310 -18116478.912 10 0 60496 51300.00000 0 -19945596.537 434075.851 -15920066.456 10 0 60496 52200.00000 0 -21715405.158 22124.157 -13414995.972 10 0 60496 53100.00000 0 -23197232.811 -176449.848 -10649855.724 10 0 60496 54000.00000 0 -24343157.724 -199649.376 -7678261.282 10 0 60496 54900.00000 0 -25115858.014 -93730.027 -4557821.082 10 0 60496 55800.00000 0 -25490114.807 88991.332 -1349025.165 10 0 60496 56700.00000 0 -25453829.023 292584.470 1885921.825 10 0 60496 57600.00000 0 -25008509.469 460107.103 5084301.147 10 0 60496 58500.00000 0 -24169211.733 536249.790 8184090.979 10 0 60496 59400.00000 0 -22963930.241 469912.706 11125164.721 10 0 60496 60300.00000 0 -21432468.510 216605.315 13850453.630 10 0 60496 61200.00000 0 -19624834.345 -259432.637 16307051.377 10 0 60496 62100.00000 0 -17599226.464 -983478.950 18447239.372 10 0 60496 63000.00000 0 -15419695.979 -1969020.328 20229413.162 10 0 60496 63900.00000 0 -13153579.717 -3216943.640 21618892.067 10 0 60496 64800.00000 0 -10868811.776 -4715262.630 22588596.449 10 0 60496 65700.00000 0 -8631224.823 -6439393.387 23119579.422 10 0 60496 66600.00000 0 -6501953.139 -8352968.968 23201402.475 10 0 60496 67500.00000 0 -4535045.252 -10409161.082 22832347.311 10 0 60496 68400.00000 0 -2775385.377 -12552455.442 22019459.192 10 0 60496 69300.00000 0 -1257010.232 -14720808.160 20778420.181 10 0 60496 70200.00000 0 -1891.353 -16848094.353 19133253.854 10 0 60496 71100.00000 0 980766.317 -18866747.432 17115866.315 10 0 60496 72000.00000 0 1694680.360 -20710479.036 14765431.580 10 0 60496 72900.00000 0 2156095.162 -22316965.691 12127632.657 10 0 60496 73800.00000 0 2392851.664 -23630389.188 9253772.641 10 0 60496 74700.00000 0 2442962.541 -24603723.396 6199773.103 10 0 60496 75600.00000 0 2352753.914 -25200670.678 3025079.555 10 0 60496 76500.00000 0 2174653.333 -25397165.695 -208504.057 10 0 60496 77400.00000 0 1964719.030 -25182382.721 -3438028.182 10 0 60496 78300.00000 0 1780016.577 -24559203.685 -6600633.071 10 0 60496 79200.00000 0 1675955.565 -23544127.188 -9634781.554 10 0 60496 80100.00000 0 1703700.596 -22166622.610 -12481464.025 10 0 60496 81000.00000 0 1907767.418 -20467957.056 -15085351.317 10 0 60496 81900.00000 0 2323906.955 -18499545.152 -17395872.444 10 0 60496 82800.00000 0 2977367.342 -16320891.837 -19368196.016 10 0 60496 83700.00000 0 3881607.781 -13997215.108 -20964096.447 10 0 60496 84600.00000 0 5037518.635 -11596848.741 -22152688.694 10 0 60496 85500.00000 0 6433180.630 -9188533.800 -22911018.055 10 0 60497 0.00000 0 8044173.123 -6838711.967 -23224494.634 10 0 60497 900.00000 0 9834419.452 -4608931.672 -23087165.197 10 0 60497 1800.00000 0 11757531.881 -2553477.175 -22501817.885 10 0 60497 2700.00000 0 13758603.043 -717313.703 -21479919.172 10 0 60497 3600.00000 0 15776367.360 865564.337 -20041384.416 10 0 60497 4500.00000 0 17745643.608 2173316.374 -18214187.084 10 0 60497 5400.00000 0 19599957.232 3196922.326 -16033814.277 10 0 60497 6300.00000 0 21274233.744 3940306.892 -13542578.954 10 0 60497 7200.00000 0 22707451.493 4419917.991 -10788801.870 10 0 60497 8100.00000 0 23845143.734 4663778.418 -7825878.666 10 0 60497 9000.00000 0 24641646.031 4710051.659 -4711249.640 10 0 60497 9900.00000 0 25061995.404 4605182.961 -1505291.739 10 0 60497 10800.00000 0 25083402.051 4401694.423 1729846.224 10 0 60497 11700.00000 0 24696232.027 4155727.329 4931442.943 10 0 60497 12600.00000 0 23904459.573 3924435.487 8037415.606 10 0 60497 13500.00000 0 22725569.763 3763339.663 10987519.307 10 0 60497 14400.00000 0 21189914.931 3723754.801 13724511.869 10 0 60497 15300.00000 0 19339551.117 3850398.805 16195261.677 10 0 60497 16200.00000 0 17226602.281 4179284.112 18351777.260 10 0 60497 17100.00000 0 14911219.691 4735981.533 20152138.874 10 0 60497 18000.00000 0 12459220.717 5534330.407 21561314.144 10 0 60497 18900.00000 0 9939504.562 6575650.541 22551842.039 10 0 60497 19800.00000 0 7421351.710 7848490.535 23104371.891 10 0 60497 20700.00000 0 4971718.864 9328924.781 23208046.767 10 0 60497 21600.00000 0 2652641.354 10981388.475 22860723.397 10 0 60497 22500.00000 0 518850.699 12760017.487 22069023.782 10 0 60497 23400.00000 0 -1384293.737 14610438.602 20848216.715 10 0 60497 24300.00000 0 -3022472.990 16471936.545 19221930.652 10 0 60497 25200.00000 0 -4373607.223 18279908.064 17221702.573 10 0 60497 26100.00000 0 -5428534.958 19968500.740 14886370.753 10 0 60497 27000.00000 0 -6191144.725 21473326.009 12261322.588 10 0 60497 27900.00000 0 -6677954.049 22734132.170 9397611.633 10 0 60497 28800.00000 0 -6917154.183 23697324.426 6350961.010 10 0 60497 29700.00000 0 -6947161.764 24318225.070 3180672.846 10 0 60497 30600.00000 0 -6814739.759 24562977.727 -51534.413 10 0 60497 31500.00000 0 -6572768.454 24410014.553 -3282737.180 10 0 60497 32400.00000 0 -6277762.388 23851023.853 -6450041.724 10 0 60497 33300.00000 0 -5987239.891 22891376.921 -9491817.726 10 0 60497 34200.00000 0 -5757058.145 21549996.007 -12348905.261 10 0 60497 35100.00000 0 -5638827.907 19858669.164 -14965770.773 10 0 60497 36000.00000 0 -5677518.370 17860841.166 -17291589.002 10 0 60497 36900.00000 0 -5909354.181 15609931.867 -19281229.527 10 0 60497 37800.00000 0 -6360093.854 13167253.033 -20896128.953 10 0 60497 38700.00000 0 -7043762.331 10599611.275 -22105032.320 10 0 60497 39600.00000 0 -7961891.010 7976697.486 -22884590.163 10 0 60497 40500.00000 0 -9103296.971 5368371.549 -23219800.643 10 0 60497 41400.00000 0 -10444410.476 2841954.937 -23104289.281 10 0 60497 42300.00000 0 -11950136.831 459643.028 -22540421.906 10 0 60497 43200.00000 0 -13575216.477 -1723856.530 -21539249.525 10 0 60497 44100.00000 0 -15266026.571 -3663362.756 -20120286.841 10 0 60497 45000.00000 0 -16962748.979 -5324854.527 -18311129.106 10 0 60497 45900.00000 0 -18601814.564 -6686631.945 -16146914.863 10 0 60497 46800.00000 0 -20118522.132 -7739959.382 -13669644.820 10 0 60497 47700.00000 0 -21449723.165 -8489165.140 -10927369.788 10 0 60497 48600.00000 0 -22536460.606 -8951195.173 -7973262.941 10 0 60497 49500.00000 0 -23326451.806 -9154640.902 -4864593.875 10 0 60497 50400.00000 0 -23776312.003 -9138282.978 -1661623.890 10 0 60497 51300.00000 0 -23853425.358 -8949212.919 1573556.547 10 0 60497 52200.00000 0 -23537385.116 -8640612.197 4778226.039 10 0 60497 53100.00000 0 -22820942.235 -8269282.553 7890243.215 10 0 60497 54000.00000 0 -21710422.254 -7893031.816 10849247.220 10 0 60497 54900.00000 0 -20225592.164 -7568025.482 13597824.710 10 0 60497 55800.00000 0 -18398981.985 -7346215.838 16082620.903 10 0 60497 56700.00000 0 -16274688.332 -7272957.178 18255373.360 10 0 60497 57600.00000 0 -13906708.777 -7384907.941 20073848.700 10 0 60497 58500.00000 0 -11356875.310 -7708308.694 21502664.181 10 0 60497 59400.00000 0 -8692471.864 -8257709.246 22513978.351 10 0 60497 60300.00000 0 -5983633.952 -9035199.507 23088037.353 10 0 60497 61200.00000 0 -3300637.678 -10030177.759 23213566.055 10 0 60497 62100.00000 0 -711190.037 -11219667.560 22887996.080 10 0 60497 63000.00000 0 1722167.455 -12569171.596 22117525.703 10 0 60497 63900.00000 0 3944434.199 -14034028.168 20917009.684 10 0 60497 64800.00000 0 5910206.430 -15561214.820 19309680.309 10 0 60497 65700.00000 0 7585328.111 -17091524.455 17326704.114 10 0 60497 66600.00000 0 8948068.024 -18562023.308 15006582.036 10 0 60497 67500.00000 0 9989774.042 -19908687.731 12394403.982 10 0 60497 68400.00000 0 10714977.535 -21069108.754 9540971.829 10 0 60497 69300.00000 0 11140944.057 -21985150.009 6501807.884 10 0 60497 70200.00000 0 11296690.053 -22605446.197 3336068.325 10 0 60497 71100.00000 0 11221508.097 -22887635.738 105383.420 10 0 60497 72000.00000 0 10963064.244 -22800232.358 -3127351.959 10 0 60497 72900.00000 0 10575149.416 -22324055.716 -6299212.832 10 0 60497 73800.00000 0 10115181.528 -21453159.923 -9348478.432 10 0 60497 74700.00000 0 9641565.590 -20195220.373 -12215841.118 10 0 60497 75600.00000 0 9211024.943 -18571362.357 -14845565.444 10 0 60497 76500.00000 0 8876017.641 -16615438.771 -17186574.212 10 0 60497 77400.00000 0 8682348.039 -14372787.519 -19193440.096 10 0 60497 78300.00000 0 8667074.911 -11898521.089 -20827263.750 10 0 60497 79200.00000 0 8856804.431 -9255420.197 -22056421.833 10 0 60497 80100.00000 0 9266439.762 -6511519.691 -22857171.273 10 0 60497 81000.00000 0 9898439.449 -3737487.342 -23214099.023 10 0 60497 81900.00000 0 10742615.290 -1003904.234 -23120409.738 10 0 60497 82800.00000 0 11776477.669 1621440.804 -22578046.798 10 0 60497 83700.00000 0 12966113.490 4076131.404 -21597645.265 10 0 60497 84600.00000 0 14267559.706 6305472.699 -20198318.336 10 0 60497 85500.00000 0 15628614.867 8264513.198 -18407281.846 10 0 60498 0.00000 0 16991012.917 9919657.071 -16259324.432 10 0 60498 900.00000 0 18292869.251 11249802.414 -13796132.278 10 0 60498 1800.00000 0 19471295.198 12246957.684 -11065484.190 10 0 60498 2700.00000 0 20465074.310 12916315.148 -8120328.324 10 0 60498 3600.00000 0 21217286.856 13275777.465 -5017760.737 10 0 60498 4500.00000 0 21677773.543 13354959.340 -1817924.037 10 0 60498 5400.00000 0 21805335.115 13193706.903 1417152.831 10 0 60498 6300.00000 0 21569575.507 12840197.652 4624751.576 10 0 60498 7200.00000 0 20952310.888 12348701.282 7742675.378 10 0 60498 8100.00000 0 19948484.942 11777095.879 10710450.382 10 0 60498 9000.00000 0 18566551.172 11184244.128 13470494.795 10 0 60498 9900.00000 0 16828305.195 10627340.115 15969233.111 10 0 60498 10800.00000 0 14768172.786 10159338.473 18158134.078 10 0 60498 11700.00000 0 12431982.036 9826574.260 19994652.520 10 0 60498 12600.00000 0 9875269.469 9666674.005 21443056.862 10 0 60498 13500.00000 0 7161189.237 9706846.259 22475126.433 10 0 60498 14400.00000 0 4358111.064 9962624.224 23070705.020 10 0 60498 15300.00000 0 1537005.655 10437114.196 23218099.729 10 0 60498 16200.00000 0 -1231274.840 11120782.529 22914317.058 10 0 60498 17100.00000 0 -3878709.106 11991791.307 22165131.042 10 0 60498 18000.00000 0 -6342699.514 13016869.900 20984981.373 10 0 60498 18900.00000 0 -8568438.081 14152687.025 19396702.618 10 0 60498 19800.00000 0 -10510947.263 15347666.686 17431088.823 10 0 60498 20700.00000 0 -12136710.527 16544172.320 15126301.136 10 0 60498 21600.00000 0 -13424824.711 17680967.638 12527129.192 10 0 60498 22500.00000 0 -14367626.126 18695850.422 9684120.204 10 0 60498 23400.00000 0 -14970764.463 19528347.790 6652592.544 10 0 60498 24300.00000 0 -15252721.996 20122358.422 3491553.309 10 0 60498 25200.00000 0 -15243799.200 20428629.130 262541.483 10 0 60498 26100.00000 0 -14984610.685 20406960.014 -2971579.775 10 0 60498 27000.00000 0 -14524156.347 20028043.910 -6147857.116 10 0 60498 27900.00000 0 -13917550.764 19274861.422 -9204482.016 10 0 60498 28800.00000 0 -13223508.408 18143571.873 -12082001.590 10 0 60498 29700.00000 0 -12501692.474 16643862.116 -14724480.688 10 0 60498 30600.00000 0 -11810040.644 14798738.240 -17080592.050 10 0 60498 31500.00000 0 -11202181.669 12643768.929 -19104612.990 10 0 60498 32400.00000 0 -10725052.368 10225812.351 -20757309.400 10 0 60498 33300.00000 0 -10416815.629 7601280.005 -22006690.415 10 0 60498 34200.00000 0 -10305166.868 4834010.233 -22828619.860 10 0 60498 35100.00000 0 -10406099.635 1992839.993 -23207273.666 10 0 60498 36000.00000 0 -10723181.505 -851024.324 -23135435.454 10 0 60498 36900.00000 0 -11247369.828 -3626728.257 -22614625.642 10 0 60498 37800.00000 0 -11957374.299 -6266470.707 -21655062.461 10 0 60498 38700.00000 0 -12820550.489 -8708074.470 -20275456.348 10 0 60498 39600.00000 0 -13794286.450 -10897320.522 -18502642.113 10 0 60498 40500.00000 0 -14827824.037 -12789950.739 -16371056.164 10 0 60498 41400.00000 0 -15864438.608 -14353257.422 -13922068.761 10 0 60498 42300.00000 0 -16843885.868 -15567195.154 -11203184.000 10 0 60498 43200.00000 0 -17705013.465 -16424970.198 -8267122.555 10 0 60498 44100.00000 0 -18388428.045 -16933084.278 -5170804.439 10 0 60498 45000.00000 0 -18839106.049 -17110832.087 -1974251.050 10 0 60498 45900.00000 0 -19008838.671 -16989274.566 1260572.690 10 0 60498 46800.00000 0 -18858408.258 -16609731.747 4470954.062 10 0 60498 47700.00000 0 -18359404.396 -16021858.904 7594643.245 10 0 60498 48600.00000 0 -17495602.875 -15281387.181 10571055.780 10 0 60498 49500.00000 0 -16263848.822 -14447623.785 13342443.742 10 0 60498 50400.00000 0 -14674405.890 -13580816.912 15855013.094 10 0 60498 51300.00000 0 -12750755.533 -12739496.182 18059965.785 10 0 60498 52200.00000 0 -10528853.252 -11977900.387 19914446.621 10 0 60498 53100.00000 0 -8055871.241 -11343600.730 21382376.663 10 0 60498 54000.00000 0 -5388478.187 -10875419.589 22435157.164 10 0 60498 54900.00000 0 -2590726.225 -10601732.573 23052230.341 10 0 60498 55800.00000 0 268368.554 -10539225.689 23221485.959 10 0 60498 56700.00000 0 3117452.759 -10692160.513 22939505.471 10 0 60498 57600.00000 0 5885561.491 -11052179.077 22211638.430 10 0 60498 58500.00000 0 8504830.725 -11598657.607 21051908.909 10 0 60498 59400.00000 0 10913084.028 -12299595.193 19482752.907 10 0 60498 60300.00000 0 13056186.256 -13113000.860 17534590.852 10 0 60498 61200.00000 0 14890066.137 -13988721.311 15245242.652 10 0 60498 62100.00000 0 16382323.343 -14870632.664 12659195.913 10 0 60498 63000.00000 0 17513352.813 -15699103.773 9826741.078 10 0 60498 63900.00000 0 18276939.296 -16413626.753 6802990.174 10 0 60498 64800.00000 0 18680297.481 -16955502.842 3646798.509 10 0 60498 65700.00000 0 18743556.610 -17270469.045 419610.874 10 0 60498 66600.00000 0 18498712.166 -17311153.288 -2815744.329 10 0 60498 67500.00000 0 17988090.021 -17039252.966 -5996288.438 10 0 60498 68400.00000 0 17262389.269 -16427343.609 -9060128.163 10 0 60498 69300.00000 0 16378387.893 -15460240.199 -11947668.208 10 0 60498 70200.00000 0 15396409.659 -14135852.898 -14602776.371 10 0 60498 71100.00000 0 14377660.520 -12465500.569 -16973877.740 10 0 60498 72000.00000 0 13381547.974 -10473668.627 -19014956.416 10 0 60498 72900.00000 0 12463097.081 -8197221.268 -20686445.382 10 0 60498 73800.00000 0 11670572.182 -5684101.072 -21955987.768 10 0 60498 74700.00000 0 11043404.230 -2991570.374 -22799055.463 10 0 60498 75600.00000 0 10610510.209 -184067.687 -23199414.142 10 0 60498 76500.00000 0 10389074.353 2669231.815 -23149426.766 10 0 60498 77400.00000 0 10383841.205 5497050.771 -22650190.749 10 0 60498 78300.00000 0 10586949.048 8228730.366 -21711507.065 10 0 60498 79200.00000 0 10978309.617 10796925.395 -20351682.587 10 0 60498 80100.00000 0 11526517.270 13140162.976 -18597169.938 10 0 60498 81000.00000 0 12190248.844 15205160.059 -16482051.974 10 0 60498 81900.00000 0 12920095.050 16948804.935 -14047380.776 10 0 60498 82800.00000 0 13660746.375 18339721.784 -11340383.701 10 0 60498 83700.00000 0 14353441.703 19359354.552 -8413551.410 10 0 60498 84600.00000 0 14938576.913 20002526.265 -5323625.052 10 0 60498 85500.00000 0 15358363.935 20277451.554 -2130501.772 10 0 60499 0.00000 0 15559428.555 20205202.831 1103920.421 10 0 60499 900.00000 0 15495237.712 19818653.083 4316938.193 10 0 60499 1800.00000 0 15128253.760 19160940.298 7446251.601 10 0 60499 2700.00000 0 14431724.982 18283518.083 10431168.596 10 0 60499 3600.00000 0 13391036.044 17243874.493 13213777.925 10 0 60499 4500.00000 0 12004560.755 16103014.813 15740069.561 10 0 60499 5400.00000 0 10283980.048 14922813.936 17960980.907 10 0 60499 6300.00000 0 8254050.258 13763349.303 19833348.691 10 0 60499 7200.00000 0 5951829.659 12680326.260 21320748.258 10 0 60499 8100.00000 0 3425393.700 11722703.789 22394204.077 10 0 60499 9000.00000 0 732090.623 10930620.243 23032757.736 10 0 60499 9900.00000 0 -2063591.638 10333706.295 23223882.195 10 0 60499 10800.00000 0 -4892460.159 9949856.159 22963733.948 10 0 60499 11700.00000 0 -7683253.435 9784509.140 22257237.650 10 0 60499 12600.00000 0 -10365370.899 9830472.208 21118000.819 10 0 60499 13500.00000 0 -12871582.735 10068291.687 19568059.409 10 0 60499 14400.00000 0 -15140607.596 10467159.009 17637458.229 10 0 60499 15300.00000 0 -17119450.870 10986312.846 15363673.491 10 0 60499 16200.00000 0 -18765405.834 11576878.794 12790887.949 10 0 60499 17100.00000 0 -20047633.876 12184068.937 9969132.192 10 0 60499 18000.00000 0 -20948257.421 12749648.017 6953308.673 10 0 60499 18900.00000 0 -21462919.717 13214561.223 3802117.655 10 0 60499 19800.00000 0 -21600788.212 13521611.436 576906.522 10 0 60499 20700.00000 0 -21384001.881 13618071.376 -2659534.175 10 0 60499 21600.00000 0 -20846586.716 13458118.726 -5844203.414 10 0 60499 22500.00000 0 -20032886.188 13004989.875 -8915125.901 10 0 60499 23400.00000 0 -18995574.312 12232759.960 -11812566.493 10 0 60499 24300.00000 0 -17793336.528 11127672.999 -14480198.227 10 0 60499 25200.00000 0 -16488317.562 9688965.224 -16866200.533 10 0 60499 26100.00000 0 -15143445.002 7929146.438 -18924265.936 10 0 60499 27000.00000 0 -13819742.074 5873727.256 -20614495.773 10 0 60499 27900.00000 0 -12573743.029 3560403.491 -21904168.016 10 0 60499 28800.00000 0 -11455119.676 1037731.745 -22768363.065 10 0 60499 29700.00000 0 -10504618.129 -1636648.613 -23190436.383 10 0 60499 30600.00000 0 -9752391.355 -4398173.253 -23162329.926 10 0 60499 31500.00000 0 -9216796.215 -7177801.022 -22684717.390 10 0 60499 32400.00000 0 -8903703.954 -9904651.304 -21766981.418 10 0 60499 33300.00000 0 -8806351.648 -12508721.914 -20427023.914 10 0 60499 34200.00000 0 -8905739.503 -14923575.666 -18690913.597 10 0 60499 35100.00000 0 -9171556.219 -17088885.260 -16592377.808 10 0 60499 36000.00000 0 -9563592.745 -18952732.026 -14172148.290 10 0 60499 36900.00000 0 -10033584.523 -20473564.215 -11477173.364 10 0 60499 37800.00000 0 -10527404.469 -21621734.560 -8559711.319 10 0 60499 38700.00000 0 -10987514.395 -22380554.198 -5476322.080 10 0 60499 39600.00000 0 -11355571.728 -22746819.911 -2286776.208 10 0 60499 40500.00000 0 -11575081.830 -22730793.505 947098.067 10 0 60499 41400.00000 0 -11593984.226 -22355634.804 4162607.877 10 0 60499 42300.00000 0 -11367063.658 -21656312.417 7297405.932 10 0 60499 43200.00000 0 -10858084.115 -20678038.150 10290694.773 10 0 60499 44100.00000 0 -10041555.380 -19474290.776 13084401.939 10 0 60499 45000.00000 0 -8904056.940 -18104511.936 15624303.460 10 0 60499 45900.00000 0 -7445062.407 -16631570.613 17861074.108 10 0 60499 46800.00000 0 -5677228.387 -15119102.176 19751244.287 10 0 60499 47700.00000 0 -3626133.936 -13628833.288 21258045.123 10 0 60499 48600.00000 0 -1329479.617 -12218004.436 22352125.556 10 0 60499 49500.00000 0 1164222.452 -10936997.871 23012127.484 10 0 60499 50400.00000 0 3797414.851 -9827270.182 23225107.699 10 0 60499 51300.00000 0 6505645.710 -8919676.112 22986798.061 10 0 60499 52200.00000 0 9220016.242 -8233253.968 22301698.362 10 0 60499 53100.00000 0 11869824.354 -7774523.779 21182999.300 10 0 60499 54000.00000 0 14385295.263 -7537327.968 19652336.231 10 0 60499 54900.00000 0 16700285.933 -7503221.493 17739377.506 10 0 60499 55800.00000 0 18754850.740 -7642395.319 15481254.495 10 0 60499 56700.00000 0 20497561.181 -7915094.354 12921843.604 10 0 60499 57600.00000 0 21887482.358 -8273469.932 10110913.728 10 0 60499 58500.00000 0 22895723.048 -8663788.151 7103155.545 10 0 60499 59400.00000 0 23506494.112 -9028899.957 3957111.720 10 0 60499 60300.00000 0 23717630.609 -9310867.450 734029.391 10 0 60499 61200.00000 0 23540555.851 -9453633.922 -2503341.793 10 0 60499 62100.00000 0 22999689.392 -9405623.180 -5691981.588 10 0 60499 63000.00000 0 22131324.731 -9122156.640 -8769835.822 10 0 60499 63900.00000 0 20982025.104 -8567584.559 -11677032.499 10 0 60499 64800.00000 0 19606606.262 -7717040.094 -14357052.689 10 0 60499 65700.00000 0 18065792.475 -6557741.176 -16757832.711 10 0 60499 66600.00000 0 16423645.621 -5089784.619 -18832775.787 10 0 60499 67500.00000 0 14744876.376 -3326398.572 -20541653.588 10 0 60499 68400.00000 0 13092150.977 -1293642.426 -21851380.624 10 0 60499 69300.00000 0 11523506.640 970433.406 -22736647.180 10 0 60499 70200.00000 0 10089983.537 3417132.879 -23180399.559 10 0 60499 71100.00000 0 8833571.614 5988908.933 -23174159.405 10 0 60499 72000.00000 0 7785556.947 8621532.905 -22718177.021 10 0 60499 72900.00000 0 6965335.254 11246548.961 -21821416.651 10 0 60499 73800.00000 0 6379740.572 13793912.226 -20501374.768 10 0 60499 74700.00000 0 6022915.526 16194701.824 -18783735.329 10 0 60499 75600.00000 0 5876727.110 18383797.097 -16701868.901 10 0 60499 76500.00000 0 5911709.257 20302406.848 -14296185.220 10 0 60499 77400.00000 0 6088491.628 21900347.484 -11613351.517 10 0 60499 78300.00000 0 6359653.938 23137976.273 -8705391.283 10 0 60499 79200.00000 0 6671927.363 23987700.129 -5628680.441 10 0 60499 80100.00000 0 6968650.217 24434997.752 -2442859.918 10 0 60499 81000.00000 0 7192374.337 24478913.105 790314.806 10 0 60499 81900.00000 0 7287512.334 24132000.092 4008165.259 10 0 60499 82800.00000 0 7202914.006 23419720.993 7148299.876 10 0 60499 83700.00000 0 6894263.112 22379323.978 10149819.038 10 0 60499 84600.00000 0 6326193.059 21058246.637 12954492.150 10 0 60499 85500.00000 0 5474031.731 19512112.196 15507884.128 99